Flag for Turkey Weather past 2 weeks in Ankara, Turkey

Now
45 °F

Partly cloudy.


Feels Like: 39 °F
Forecast: 38 / 59 °F
Wind: 10 mph from Southwest

Location: Ankara / Esenboga

Current Time: Apr 20, 2015 at 12:29:49 AM

Latest Report: Apr 19, 2015 at 11:50 PM


Visibility: N/A

Pressure: 29.95 "Hg

Humidity: 71%

Dew point: 36 °F

Location of AnkaraLocation

Historic Weather in Ankara — Graph

°F

Ankara temperature yesterday

Maximum temperature yesterday: 68 °F (at 3:50 PM)
Minimum temperature yesterday: 45 °F (at 6:20 AM)
Average temperature yesterday: 57 °F

Past Weeks' High & Low Weather Summary

 TemperatureHumidityPressure
High68 °F (Apr 19, 3:50 PM)100% (Apr 10, 6:20 AM)30.24 "Hg (Apr 10, 6:20 AM)
Low23 °F (Apr 5, 5:50 AM)24% (Apr 19, 4:20 PM)29.53 "Hg (Apr 9, 9:50 AM)
Average45 °F63%30.00 "Hg
* Reported Apr 4 10:20 PM — Apr 19 10:50 PM, Ankara, Weather by CustomWeather, © 2015

Note: Actual official high and low records may vary slightly from our data, if they occured in-between our weather recording intervals... More about our weather records

Advertising

Ankara weather history for previous 24 hours

 ConditionsComfort  
Time TempWeatherWind HumidityBarometerVisibility
10:50 PM
Sun, Apr 19
45 °FPartly cloudy.10 mph71%29.92 "HgN/A
10:20 PM48 °FPartly cloudy.9 mph66%29.92 "HgN/A
9:50 PM48 °FPartly cloudy.9 mph66%29.89 "HgN/A
9:20 PM52 °FPartly cloudy.7 mph58%29.89 "HgN/A
8:50 PM52 °FPassing clouds.8 mph62%29.89 "HgN/A
8:20 PM52 °FScattered clouds.5 mph62%29.86 "HgN/A
7:50 PM54 °FScattered clouds.10 mph58%29.83 "HgN/A
7:20 PM57 °FScattered clouds.9 mph55%29.83 "HgN/A
6:50 PM61 °FScattered clouds.13 mph45%29.80 "HgN/A
6:20 PM66 °FScattered clouds.13 mph32%29.77 "HgN/A
5:50 PM66 °FScattered clouds.14 mph30%29.77 "HgN/A
5:20 PM68 °FScattered clouds.14 mph28%29.80 "HgN/A
4:50 PM68 °FScattered clouds.17 mph26%29.80 "HgN/A
4:20 PM68 °FScattered clouds.22 mph24%29.80 "HgN/A
3:50 PM68 °FScattered clouds.16 mph28%29.83 "HgN/A
3:20 PM66 °FScattered clouds.16 mph30%29.83 "HgN/A
2:50 PM66 °FScattered clouds.18 mph28%29.86 "HgN/A
2:20 PM66 °FScattered clouds.22 mph30%29.86 "HgN/A
1:50 PM66 °FScattered clouds.22 mph28%29.89 "HgN/A
1:20 PM66 °FScattered clouds.20 mph28%29.89 "HgN/A
12:50 PM64 °FPassing clouds.22 mph30%29.89 "HgN/A
12:20 PM64 °FPassing clouds.21 mph32%29.89 "HgN/A
11:50 AM63 °FSunny.22 mph34%29.92 "Hg10 mi
11:20 AM63 °FSunny.20 mph37%29.92 "Hg10 mi
10:50 AM61 °FSunny.20 mph39%29.92 "Hg10 mi
10:20 AM61 °FSunny.17 mph36%29.92 "Hg10 mi
9:50 AM59 °FSunny.13 mph45%29.92 "Hg10 mi
9:20 AM57 °FSunny.10 mph44%29.92 "Hg10 mi
8:50 AM55 °FSunny.10 mph55%29.92 "Hg10 mi
8:20 AM54 °FSunny.12 mph54%29.92 "Hg10 mi
7:50 AM52 °FSunny.7 mph58%29.95 "Hg10 mi
7:20 AM50 °FSunny.2 mph62%29.95 "Hg10 mi
6:50 AM46 °FClear.1 mph71%29.92 "Hg10 mi
6:20 AM45 °FClear.8 mph71%29.92 "Hg10 mi
5:50 AM48 °FClear.9 mph62%29.92 "Hg10 mi
5:20 AM48 °FClear.12 mph66%29.92 "Hg10 mi
4:50 AM48 °FClear.7 mph62%29.92 "Hg10 mi
4:20 AM50 °FClear.6 mph58%29.95 "Hg10 mi
3:50 AM50 °FClear.7 mph58%29.95 "Hg10 mi
3:20 AM52 °FClear.3 mph54%29.95 "Hg10 mi
2:50 AM52 °FPassing clouds.5 mph54%29.95 "HgN/A
2:20 AM52 °FPassing clouds.6 mph58%29.95 "HgN/A
1:50 AM54 °FClear.9 mph54%29.95 "Hg10 mi
1:20 AM54 °FClear.12 mph54%29.95 "Hg10 mi
12:50 AM55 °FClear.13 mph47%29.95 "Hg10 mi
12:20 AM54 °FClear.10 mph54%29.95 "Hg10 mi
Weather by CustomWeather, © 2015

See weather overviewHow to use our weather pages